Regional Weather Roundup
Issued by NWS

Home | Current Version | Previous Version | Text Only | Print | Product List | Glossary Off
Versions: 1 2 3 4 5 6 7 8 9 10 11 12 13 14 15 16 17 18 19 20 21 22 23 24 25 26 27 28 29 30 31 32 33 34 35 36 37 38 39 40 41 42 43 44 45 46 47 48 49 50

000
ASUS43 KIND 231400
RWRIN

WEATHER ROUNDUP FOR INDIANA
NATIONAL WEATHER SERVICE INDIANAPOLIS IN
1000 AM EDT SUN JUL 23 2017

NOTE: "FAIR" INDICATES FEW OR NO CLOUDS BELOW 12,000 FEET WITH NO
SIGNIFICANT WEATHER AND/OR OBSTRUCTIONS TO VISIBILITY.

* - STATION DOES NOT REPORT WEATHER SUCH AS PRECIPITATION OR FOG.

+ - STATION NOT QUALITY CONTROLLED BY THE NATIONAL WEATHER SERVICE.
    USE DATA WITH CAUTION...ESPECIALLY DEWPOINT AND RELATIVE
    HUMIDITY OBSERVATIONS.

INZ001>003-010>013-019-020-231500-
NORTHWEST INDIANA

CITY           SKY/WX    TMP DP  RH WIND       PRES   REMARKS
GARY /AIRPORT/ PTSUNNY   81  72  74 W7        29.82S
MICHIGAN CITY+ PTSUNNY   77  72  83 CALM      29.82S
MONTICELLO +   CLOUDY    76  74  96 CALM      29.82S
RENSSELAER +   CLOUDY    77  73  88 W6        29.83R

$$

LMZ046-743>745-231500-
SOUTHERN LAKE MICHIGAN

STATION/POSITION TIME  TEMP    WIND        PRES    WAVE
                       AIR SEA DIR/SP/G            HT
                 (UTC) (F)     (DEG/KT/KT) (MB)    (FT)
BURNS HARBOR     1340   74     310/  3/  3 1010.2S
MICHIGAN CITY    1330   74     240/  2/  2   N/A
5NW MICH CITY    1350   75 75  220/  2/  4   N/A     0

$$

INZ004-005-014>016-021>024-231500-
NORTH CENTRAL INDIANA

CITY           SKY/WX    TMP DP  RH WIND       PRES   REMARKS
ELKHART        MOSUNNY   77  68  73 SW5       29.83R
GOSHEN         PTSUNNY   77  68  73 S7        29.82S
SOUTH BEND     CLOUDY    76  69  79 S6        29.83R
WARSAW +       PTSUNNY   73  70  88 CALM      29.83F

$$

INZ006>009-017-018-025>027-231500-
NORTHEAST INDIANA

CITY           SKY/WX    TMP DP  RH WIND       PRES   REMARKS
FORT WAYNE     CLOUDY    75  70  84 S3        29.83S
KENDALLVILLE + CLOUDY    73  73 100 SW3       29.84S

$$

INZ028-029-035-036-043>045-051>053-231500-
WEST CENTRAL INDIANA

CITY           SKY/WX    TMP DP  RH WIND       PRES   REMARKS
LAFAYETTE      CLOUDY    76  75  97 SW5       29.83S
TERRE HAUTE    LGT RAIN  73  69  87 E6        29.83F

$$

INZ030>032-037>040-046>048-054>057-064-065-231500-
CENTRAL INDIANA

CITY           SKY/WX    TMP DP  RH WIND       PRES   REMARKS
COLUMBUS       LGT RAIN  70  66  88 SW23G32   29.89R
FRANKFORT +    CLOUDY    76  73  92 SW6       29.88R
GREENWOOD *+   CLOUDY   N/A N/A N/A SW14G20   29.88S
INDIANAPOLIS   CLOUDY    72  71  97 SW16      29.87F
-EAGLE CREEK   CLOUDY    73  69  87 VRB7      29.86S
KOKOMO +       CLOUDY    77  74  90 SW8       29.84S
MT COMFORT *+  CLOUDY    72  70  94 SW13      29.88R VSB 1/2
SHELBYVILLE    CLOUDY    74  68  81 SW20G29   29.87F

$$

INZ033-034-041-042-049-050-058-059-231500-
EAST CENTRAL INDIANA

CITY           SKY/WX    TMP DP  RH WIND       PRES   REMARKS
MUNCIE         CLOUDY    75  70  84 SW8       29.85R
RICHMOND +     LGT RAIN  70  68  94 W14       29.89R

$$

INZ060-061-067>069-081>083-085>088-231500-
SOUTHWEST INDIANA

CITY           SKY/WX    TMP DP  RH WIND       PRES   REMARKS
EVANSVILLE     CLOUDY    72  70  93 SE3       29.90F
HUNTINGBURG *+ CLOUDY    71  69  93 CALM      29.91F

$$

INZ062-063-066-070>080-084-089>092-231500-
SOUTH CENTRAL AND SOUTHEAST INDIANA

CITY           SKY/WX    TMP DP  RH WIND       PRES   REMARKS
BLOOMINGTON    TSTM      73  69  87 W7        29.93F FOG
MADISON *+     CLOUDY    70  66  88 W10       29.96R
SEYMOUR +      TSTM     N/A N/A N/A W18       29.92F

$$





USA.gov is the U.S. government's official web portal to all federal, state and local government web resources and services.